Time,TemperatureF,DewpointF,PressureIn,WindDirection,WindDirectionDegrees,WindSpeedMPH,WindSpeedGustMPH,Humidity,HourlyPrecipIn,Conditions,Clouds,dailyrainin,SoftwareType,DateUTC
2013-03-03 00:02:00,20.0,17.0,-100.00,South,170,2.0,4.0,85,0.00,,,-99.99,,2013-03-03 06:02:00,
2013-03-03 00:11:00,20.0,16.0,-100.00,SSE,150,2.0,3.0,84,0.00,,,-99.99,,2013-03-03 06:11:00,
2013-03-03 00:21:00,20.0,16.0,-100.00,SE,140,2.0,3.0,84,0.00,,,-99.99,,2013-03-03 06:21:00,
2013-03-03 00:31:00,19.0,15.0,-100.00,ESE,115,1.0,2.0,84,0.00,,,-99.99,,2013-03-03 06:31:00,
2013-03-03 00:42:00,19.0,15.0,-100.00,ESE,115,1.0,2.0,84,0.00,,,-99.99,,2013-03-03 06:42:00,
2013-03-03 00:52:00,19.0,15.0,-100.00,ESE,115,0.0,2.0,84,0.00,,,-99.99,,2013-03-03 06:52:00,
2013-03-03 01:01:00,19.0,15.0,-100.00,ESE,115,0.0,2.0,84,0.00,,,-99.99,,2013-03-03 07:01:00,
2013-03-03 01:11:00,19.0,16.0,-100.00,NE,50,0.0,1.0,85,0.00,,,-99.99,,2013-03-03 07:11:00,
2013-03-03 01:21:00,19.0,15.0,-100.00,East,100,1.0,2.0,85,0.00,,,-99.99,,2013-03-03 07:21:00,
2013-03-03 01:31:00,18.0,14.0,-100.00,ESE,115,4.0,4.0,86,0.00,,,-99.99,,2013-03-03 07:31:00,
2013-03-03 01:42:00,18.0,14.0,-100.00,ESE,115,4.0,4.0,86,0.00,,,-99.99,,2013-03-03 07:42:00,
2013-03-03 01:51:00,17.0,14.0,-100.00,SE,125,1.0,3.0,88,0.00,,,-99.99,,2013-03-03 07:51:00,
2013-03-03 02:01:00,17.0,14.0,-100.00,SE,125,1.0,3.0,88,0.00,,,-99.99,,2013-03-03 08:01:00,
2013-03-03 02:11:00,17.0,14.0,-100.00,SE,130,1.0,2.0,88,0.00,,,-99.99,,2013-03-03 08:11:00,
2013-03-03 02:21:00,15.0,13.0,-100.00,SSE,155,0.0,0.0,89,0.00,,,-99.99,,2013-03-03 08:21:00,
2013-03-03 02:31:00,14.0,11.0,-100.00,East,95,0.0,2.0,89,0.00,,,-99.99,,2013-03-03 08:31:00,
2013-03-03 02:41:00,14.0,11.0,-100.00,East,95,0.0,2.0,89,0.00,,,-99.99,,2013-03-03 08:41:00,
2013-03-03 02:53:00,13.0,11.0,-100.00,SSE,160,1.0,1.0,90,0.00,,,-99.99,,2013-03-03 08:53:00,
2013-03-03 03:01:00,13.0,11.0,-100.00,SSE,160,1.0,1.0,90,0.00,,,-99.99,,2013-03-03 09:01:00,
2013-03-03 03:11:00,13.0,11.0,-100.00,South,175,0.0,1.0,90,0.00,,,-99.99,,2013-03-03 09:11:00,
2013-03-03 03:21:00,14.0,12.0,-100.00,SSE,160,0.0,0.0,90,0.00,,,-99.99,,2013-03-03 09:21:00,
2013-03-03 03:32:00,16.0,14.0,-100.00,SE,125,1.0,2.0,91,0.00,,,-99.99,,2013-03-03 09:32:00,
2013-03-03 03:41:00,16.0,14.0,-100.00,SE,125,1.0,2.0,91,0.00,,,-99.99,,2013-03-03 09:41:00,
2013-03-03 03:51:00,18.0,17.0,-100.00,SE,140,2.0,3.0,91,0.00,,,-99.99,,2013-03-03 09:51:00,
2013-03-03 04:01:00,18.0,17.0,-100.00,SE,140,2.0,3.0,91,0.00,,,-99.99,,2013-03-03 10:01:00,
2013-03-03 04:11:00,19.0,17.0,-100.00,SE,125,2.0,4.0,91,0.00,,,-99.99,,2013-03-03 10:11:00,
2013-03-03 04:21:00,19.0,17.0,-100.00,SE,135,2.0,2.0,91,0.00,,,-99.99,,2013-03-03 10:21:00,
2013-03-03 04:32:00,20.0,18.0,-100.00,SE,145,3.0,6.0,90,0.00,,,-99.99,,2013-03-03 10:32:00,
2013-03-03 04:42:00,20.0,18.0,-100.00,SE,145,3.0,6.0,90,0.00,,,-99.99,,2013-03-03 10:42:00,
2013-03-03 04:52:00,21.0,18.0,-100.00,ESE,115,4.0,6.0,89,0.00,,,-99.99,,2013-03-03 10:52:00,
2013-03-03 05:01:00,21.0,18.0,-100.00,ESE,115,4.0,6.0,89,0.00,,,-99.99,,2013-03-03 11:01:00,
2013-03-03 05:11:00,20.0,18.0,-100.00,SE,125,5.0,7.0,89,0.00,,,-99.99,,2013-03-03 11:11:00,
2013-03-03 05:21:00,20.0,18.0,-100.00,ESE,115,4.0,6.0,89,0.00,,,-99.99,,2013-03-03 11:21:00,
2013-03-03 05:32:00,20.0,18.0,-100.00,SE,125,6.0,8.0,88,0.00,,,-99.99,,2013-03-03 11:32:00,
2013-03-03 05:42:00,20.0,18.0,-100.00,SE,125,6.0,8.0,88,0.00,,,-99.99,,2013-03-03 11:42:00,
2013-03-03 05:52:00,20.0,18.0,-100.00,ESE,110,4.0,6.0,88,0.00,,,-99.99,,2013-03-03 11:52:00,
2013-03-03 06:01:00,20.0,18.0,-100.00,ESE,110,4.0,6.0,88,0.00,,,-99.99,,2013-03-03 12:01:00,
2013-03-03 06:11:00,20.0,17.0,-100.00,East,90,7.0,9.0,88,0.00,,,-99.99,,2013-03-03 12:11:00,
2013-03-03 06:21:00,20.0,17.0,-100.00,ESE,115,6.0,9.0,88,0.00,,,-99.99,,2013-03-03 12:21:00,
2013-03-03 06:32:00,20.0,17.0,-100.00,ESE,115,4.0,7.0,88,0.00,,,-99.99,,2013-03-03 12:32:00,
2013-03-03 06:42:00,20.0,17.0,-100.00,ESE,115,4.0,7.0,88,0.00,,,-99.99,,2013-03-03 12:42:00,
2013-03-03 06:52:00,20.0,17.0,-100.00,SE,140,6.0,7.0,87,0.00,,,-99.99,,2013-03-03 12:52:00,
2013-03-03 07:01:00,20.0,17.0,-100.00,SE,140,6.0,7.0,87,0.00,,,-99.99,,2013-03-03 13:01:00,
2013-03-03 07:11:00,20.0,17.0,-100.00,SE,125,6.0,8.0,86,0.00,,,-99.99,,2013-03-03 13:11:00,
2013-03-03 07:21:00,20.0,17.0,-100.00,SE,125,6.0,8.0,85,0.00,,,-99.99,,2013-03-03 13:21:00,
2013-03-03 07:32:00,20.0,17.0,-100.00,SE,135,4.0,7.0,84,0.00,,,-99.99,,2013-03-03 13:32:00,
2013-03-03 07:42:00,20.0,17.0,-100.00,SE,135,4.0,7.0,84,0.00,,,-99.99,,2013-03-03 13:42:00,
2013-03-03 07:51:00,21.0,17.0,-100.00,SE,125,4.0,8.0,82,0.00,,,-99.99,,2013-03-03 13:51:00,
2013-03-03 08:02:00,21.0,17.0,-100.00,SE,125,4.0,8.0,82,0.00,,,-99.99,,2013-03-03 14:02:00,
2013-03-03 08:11:00,22.0,17.0,-100.00,SE,130,6.0,7.0,81,0.00,,,-99.99,,2013-03-03 14:11:00,
2013-03-03 08:21:00,22.0,17.0,-100.00,SE,125,7.0,10.0,79,0.00,,,-99.99,,2013-03-03 14:21:00,
2013-03-03 08:32:00,23.0,17.0,-100.00,SE,130,9.0,11.0,76,0.00,,,-99.99,,2013-03-03 14:32:00,
2013-03-03 08:42:00,23.0,17.0,-100.00,SE,130,9.0,11.0,76,0.00,,,-99.99,,2013-03-03 14:42:00,
2013-03-03 08:52:00,24.0,17.0,-100.00,SE,135,9.0,12.0,74,0.00,,,-99.99,,2013-03-03 14:52:00,
2013-03-03 09:01:00,24.0,17.0,-100.00,SE,135,9.0,12.0,74,0.00,,,-99.99,,2013-03-03 15:01:00,
2013-03-03 09:11:00,24.0,17.0,-100.00,SE,140,11.0,12.0,74,0.00,,,-99.99,,2013-03-03 15:11:00,
2013-03-03 09:22:00,25.0,18.0,-100.00,SE,125,7.0,12.0,73,0.00,,,-99.99,,2013-03-03 15:22:00,
2013-03-03 09:32:00,25.0,17.0,-100.00,SE,140,10.0,14.0,72,0.00,,,-99.99,,2013-03-03 15:32:00,
2013-03-03 09:42:00,25.0,17.0,-100.00,SE,140,10.0,14.0,72,0.00,,,-99.99,,2013-03-03 15:42:00,
2013-03-03 09:51:00,25.0,17.0,-100.00,SE,145,9.0,12.0,71,0.00,,,-99.99,,2013-03-03 15:51:00,
2013-03-03 10:01:00,25.0,17.0,-100.00,SE,145,9.0,12.0,71,0.00,,,-99.99,,2013-03-03 16:01:00,
2013-03-03 10:12:00,25.0,17.0,-100.00,SE,145,9.0,12.0,71,0.00,,,-99.99,,2013-03-03 16:12:00,
2013-03-03 10:21:00,26.0,18.0,-100.00,SE,135,9.0,12.0,72,0.00,,,-99.99,,2013-03-03 16:21:00,
2013-03-03 10:32:00,27.0,18.0,-100.00,SE,135,10.0,14.0,70,0.00,,,-99.99,,2013-03-03 16:32:00,
2013-03-03 10:42:00,27.0,18.0,-100.00,SE,135,10.0,14.0,70,0.00,,,-99.99,,2013-03-03 16:42:00,
2013-03-03 10:52:00,27.0,19.0,-100.00,SE,140,12.0,17.0,69,0.00,,,-99.99,,2013-03-03 16:52:00,
2013-03-03 11:01:00,27.0,19.0,-100.00,SE,140,12.0,17.0,69,0.00,,,-99.99,,2013-03-03 17:01:00,
2013-03-03 11:11:00,28.0,19.0,-100.00,SE,145,10.0,15.0,69,0.00,,,-99.99,,2013-03-03 17:11:00,
2013-03-03 11:22:00,28.0,19.0,-100.00,SE,135,11.0,17.0,69,0.00,,,-99.99,,2013-03-03 17:22:00,
2013-03-03 11:32:00,29.0,20.0,-100.00,SE,135,11.0,18.0,67,0.00,,,-99.99,,2013-03-03 17:32:00,
2013-03-03 11:42:00,29.0,20.0,-100.00,SE,135,11.0,18.0,67,0.00,,,-99.99,,2013-03-03 17:42:00,
2013-03-03 11:52:00,30.0,19.0,-100.00,SSE,155,9.0,18.0,64,0.00,,,-99.99,,2013-03-03 17:52:00,
2013-03-03 12:01:00,30.0,19.0,-100.00,SSE,155,9.0,18.0,64,0.00,,,-99.99,,2013-03-03 18:01:00,
2013-03-03 12:11:00,29.0,19.0,-100.00,SE,125,13.0,17.0,64,0.00,,,-99.99,,2013-03-03 18:11:00,
2013-03-03 12:21:00,30.0,19.0,-100.00,SSE,150,10.0,16.0,64,0.00,,,-99.99,,2013-03-03 18:21:00,
2013-03-03 12:32:00,30.0,18.0,-100.00,SE,135,15.0,17.0,61,0.00,,,-99.99,,2013-03-03 18:32:00,
2013-03-03 12:42:00,30.0,18.0,-100.00,SE,135,15.0,17.0,61,0.00,,,-99.99,,2013-03-03 18:42:00,
2013-03-03 12:52:00,30.0,15.0,-100.00,SSE,150,13.0,16.0,53,0.00,,,-99.99,,2013-03-03 18:52:00,
2013-03-03 13:01:00,30.0,15.0,-100.00,SSE,150,13.0,16.0,53,0.00,,,-99.99,,2013-03-03 19:01:00,
2013-03-03 13:11:00,30.0,15.0,-100.00,SSE,150,12.0,19.0,52,0.00,,,-99.99,,2013-03-03 19:11:00,
2013-03-03 13:21:00,31.0,15.0,-100.00,SE,140,12.0,17.0,52,0.00,,,-99.99,,2013-03-03 19:21:00,
2013-03-03 13:32:00,30.0,13.0,-100.00,SE,135,14.0,18.0,48,0.00,,,-99.99,,2013-03-03 19:32:00,
2013-03-03 13:42:00,30.0,13.0,-100.00,SE,135,14.0,18.0,48,0.00,,,-99.99,,2013-03-03 19:42:00,
2013-03-03 13:51:00,30.0,13.0,-100.00,SE,140,13.0,19.0,47,0.00,,,-99.99,,2013-03-03 19:51:00,
2013-03-03 14:01:00,30.0,13.0,-100.00,SE,140,13.0,19.0,47,0.00,,,-99.99,,2013-03-03 20:01:00,
2013-03-03 14:11:00,30.0,11.0,-100.00,SE,145,12.0,21.0,45,0.00,,,-99.99,,2013-03-03 20:11:00,
2013-03-03 14:21:00,30.0,11.0,-100.00,SE,145,16.0,21.0,44,0.00,,,-99.99,,2013-03-03 20:21:00,
2013-03-03 14:32:00,31.0,11.0,-100.00,SSE,150,12.0,19.0,44,0.00,,,-99.99,,2013-03-03 20:32:00,
2013-03-03 14:42:00,31.0,11.0,-100.00,SSE,150,12.0,19.0,44,0.00,,,-99.99,,2013-03-03 20:42:00,
2013-03-03 14:52:00,31.0,13.0,-100.00,SE,135,13.0,19.0,46,0.00,,,-99.99,,2013-03-03 20:52:00,
2013-03-03 15:02:00,31.0,13.0,-100.00,SE,135,13.0,19.0,46,0.00,,,-99.99,,2013-03-03 21:02:00,
2013-03-03 15:11:00,31.0,14.0,-100.00,SE,125,13.0,17.0,47,0.00,,,-99.99,,2013-03-03 21:11:00,
2013-03-03 15:21:00,31.0,14.0,-100.00,SE,125,12.0,18.0,48,0.00,,,-99.99,,2013-03-03 21:21:00,
2013-03-03 15:32:00,31.0,14.0,-100.00,SE,145,11.0,18.0,48,0.00,,,-99.99,,2013-03-03 21:32:00,
2013-03-03 15:41:00,31.0,14.0,-100.00,SE,145,11.0,18.0,48,0.00,,,-99.99,,2013-03-03 21:41:00,
2013-03-03 15:52:00,30.0,12.0,-100.00,SE,135,14.0,19.0,46,0.00,,,-99.99,,2013-03-03 21:52:00,
2013-03-03 16:01:00,30.0,12.0,-100.00,SE,135,14.0,19.0,46,0.00,,,-99.99,,2013-03-03 22:01:00,
2013-03-03 16:11:00,30.0,12.0,-100.00,SE,140,12.0,17.0,46,0.00,,,-99.99,,2013-03-03 22:11:00,
2013-03-03 16:22:00,30.0,12.0,-100.00,SE,135,12.0,20.0,46,0.00,,,-99.99,,2013-03-03 22:22:00,
2013-03-03 16:32:00,29.0,11.0,-100.00,SE,135,14.0,18.0,45,0.00,,,-99.99,,2013-03-03 22:32:00,
2013-03-03 16:42:00,29.0,11.0,-100.00,SE,135,14.0,18.0,45,0.00,,,-99.99,,2013-03-03 22:42:00,
2013-03-03 16:52:00,29.0,13.0,-100.00,ESE,120,10.0,19.0,51,0.00,,,-99.99,,2013-03-03 22:52:00,
2013-03-03 17:01:00,29.0,13.0,-100.00,ESE,120,10.0,19.0,51,0.00,,,-99.99,,2013-03-03 23:01:00,
2013-03-03 17:11:00,28.0,14.0,-100.00,ESE,120,10.0,16.0,53,0.00,,,-99.99,,2013-03-03 23:11:00,
2013-03-03 17:21:00,27.0,13.0,-100.00,SE,125,12.0,17.0,54,0.00,,,-99.99,,2013-03-03 23:21:00,
2013-03-03 17:32:00,27.0,12.0,-100.00,SE,125,11.0,16.0,54,0.00,,,-99.99,,2013-03-03 23:32:00,
2013-03-03 17:41:00,27.0,12.0,-100.00,SE,125,11.0,16.0,54,0.00,,,-99.99,,2013-03-03 23:41:00,
2013-03-03 17:52:00,26.0,11.0,-100.00,ESE,115,10.0,16.0,52,0.00,,,-99.99,,2013-03-03 23:52:00,
2013-03-03 18:01:00,26.0,11.0,-100.00,ESE,115,10.0,16.0,52,0.00,,,-99.99,,2013-03-04 00:01:00,
2013-03-03 18:11:00,26.0,11.0,-100.00,ESE,120,12.0,18.0,52,0.00,,,-99.99,,2013-03-04 00:11:00,
2013-03-03 18:21:00,26.0,10.0,-100.00,ESE,120,11.0,18.0,51,0.00,,,-99.99,,2013-03-04 00:21:00,
2013-03-03 18:32:00,25.0,10.0,-100.00,SE,125,10.0,18.0,51,0.00,,,-99.99,,2013-03-04 00:32:00,
2013-03-03 18:42:00,25.0,10.0,-100.00,SE,125,10.0,18.0,51,0.00,,,-99.99,,2013-03-04 00:42:00,
2013-03-03 18:52:00,25.0,10.0,-100.00,ESE,120,12.0,18.0,51,0.00,,,-99.99,,2013-03-04 00:52:00,
2013-03-03 19:01:00,25.0,10.0,-100.00,SE,125,11.0,19.0,51,0.00,,,-99.99,,2013-03-04 01:01:00,
2013-03-03 19:11:00,25.0,10.0,-100.00,SE,125,11.0,18.0,53,0.00,,,-99.99,,2013-03-04 01:11:00,
2013-03-03 19:21:00,25.0,11.0,-100.00,SE,135,10.0,17.0,54,0.00,,,-99.99,,2013-03-04 01:21:00,
2013-03-03 19:32:00,25.0,12.0,-100.00,ESE,120,9.0,17.0,56,0.00,,,-99.99,,2013-03-04 01:32:00,
2013-03-03 19:42:00,25.0,12.0,-100.00,ESE,120,9.0,17.0,56,0.00,,,-99.99,,2013-03-04 01:42:00,
2013-03-03 19:51:00,25.0,12.0,-100.00,SE,125,11.0,17.0,57,0.00,,,-99.99,,2013-03-04 01:51:00,
2013-03-03 20:01:00,25.0,12.0,-100.00,SE,125,11.0,17.0,57,0.00,,,-99.99,,2013-03-04 02:01:00,
2013-03-03 20:11:00,25.0,12.0,-100.00,ESE,110,11.0,17.0,57,0.00,,,-99.99,,2013-03-04 02:11:00,
2013-03-03 20:22:00,25.0,13.0,-100.00,SE,130,9.0,16.0,59,0.00,,,-99.99,,2013-03-04 02:22:00,
2013-03-03 20:32:00,25.0,13.0,-100.00,SE,130,11.0,17.0,59,0.00,,,-99.99,,2013-03-04 02:32:00,
2013-03-03 20:42:00,25.0,13.0,-100.00,SE,130,11.0,17.0,59,0.00,,,-99.99,,2013-03-04 02:42:00,
2013-03-03 20:52:00,25.0,13.0,-100.00,SE,125,12.0,18.0,59,0.00,,,-99.99,,2013-03-04 02:52:00,
2013-03-03 21:01:00,25.0,13.0,-100.00,SE,125,12.0,18.0,59,0.00,,,-99.99,,2013-03-04 03:01:00,
2013-03-03 21:11:00,25.0,13.0,-100.00,ESE,115,9.0,18.0,59,0.00,,,-99.99,,2013-03-04 03:11:00,
2013-03-03 21:21:00,25.0,13.0,-100.00,SE,130,12.0,19.0,59,0.00,,,-99.99,,2013-03-04 03:21:00,
2013-03-03 21:32:00,25.0,13.0,-100.00,SE,130,12.0,19.0,58,0.00,,,-99.99,,2013-03-04 03:32:00,
2013-03-03 21:42:00,25.0,13.0,-100.00,SE,130,12.0,19.0,58,0.00,,,-99.99,,2013-03-04 03:42:00,
2013-03-03 21:52:00,25.0,12.0,-100.00,SE,130,16.0,21.0,57,0.00,,,-99.99,,2013-03-04 03:52:00,
2013-03-03 22:01:00,25.0,12.0,-100.00,SE,130,16.0,21.0,57,0.00,,,-99.99,,2013-03-04 04:01:00,
2013-03-03 22:11:00,25.0,12.0,-100.00,SE,140,12.0,20.0,57,0.00,,,-99.99,,2013-03-04 04:11:00,
2013-03-03 22:22:00,25.0,12.0,-100.00,SE,135,12.0,19.0,58,0.00,,,-99.99,,2013-03-04 04:22:00,
2013-03-03 22:32:00,25.0,13.0,-100.00,SE,130,10.0,16.0,59,0.00,,,-99.99,,2013-03-04 04:32:00,
2013-03-03 22:42:00,25.0,13.0,-100.00,SE,130,10.0,16.0,59,0.00,,,-99.99,,2013-03-04 04:42:00,
2013-03-03 22:51:00,25.0,13.0,-100.00,SE,130,11.0,14.0,61,0.00,,,-99.99,,2013-03-04 04:51:00,
2013-03-03 23:01:00,25.0,13.0,-100.00,SE,130,11.0,14.0,61,0.00,,,-99.99,,2013-03-04 05:01:00,
2013-03-03 23:11:00,25.0,14.0,-100.00,SE,135,11.0,16.0,61,0.00,,,-99.99,,2013-03-04 05:11:00,
2013-03-03 23:22:00,25.0,14.0,-100.00,SE,145,10.0,19.0,61,0.00,,,-99.99,,2013-03-04 05:22:00,
2013-03-03 23:31:00,25.0,14.0,-100.00,SE,140,10.0,16.0,62,0.00,,,-99.99,,2013-03-04 05:31:00,
2013-03-03 23:42:00,25.0,14.0,-100.00,SE,140,10.0,16.0,62,0.00,,,-99.99,,2013-03-04 05:42:00,
2013-03-03 23:52:00,25.0,14.0,-100.00,SSE,155,11.0,15.0,62,0.00,,,-99.99,,2013-03-04 05:52:00,